Location: Lalanga
(4.5882°N, 32.9072°E)
Time: 13:55:57
(UTC+00:00)

BLOCK DM-SL R/B - Pass Details

Date: 24 January 2020
Orbit: 884 x 35729 km, 0.6° (Epoch: 23 February)

Event Time Altitude Azimuth Distance (km) Brightness Sun altitude
Rises 17:00:25 0° 267° (W) 10,958 10.4 -15.7°
Reaches altitude 10° 17:11:50 10° 264° (W) 6,643 9.0 -18.4°
Maximum altitude 17:25:05 60° 186° (S) 1,367 4.3 -21.5°
Enters shadow 17:27:44 29° 116° (ESE) 1,698 4.4 -22.1°
